This demonstration page uses our WeatherBlox Daily Observations layout. Learn more.

Left ArrowRight Arrow

39.29038, -76.61219

Hourly Observations for March 4, 2015

Temp ( °F °C ) Dew Point ( °F °C ) Humidity (%) Winds ( mph kmh ) Pressure ( in mb ) Visibility ( mi km ) Precip ( " mm )
12:54 am 00:54 undefined 35 1.7 32 0 89 89 undefined N/A 29.83 1010 N/A 0.00 0.00
1:54 am 01:54 undefined 37 2.8 34 1.1 89 89 undefined N/A 29.82 1010 N/A 0.00 0.00
2:54 am 02:54 undefined 38 3.3 34 1.1 86 86 undefined N/A 29.83 1010 N/A 0.00 0.00
3:54 am 03:54 undefined 38 3.3 35 1.7 89 89 undefined N/A 29.83 1010 N/A 0.00 0.00
4:54 am 04:54 undefined 38 3.3 35 1.7 89 89 undefined N/A 29.83 1010 N/A 0.00 0.00
5:54 am 05:54 undefined 38 3.3 36 2.2 93 93 undefined N/A 29.85 1011 N/A 0.00 0.00
6:54 am 06:54 undefined 39 3.9 36 2.2 89 89 undefined N/A 29.88 1012 N/A 0.00 0.00
7:54 am 07:54 undefined 40 4.4 37 2.8 89 89 undefined N/A 29.91 1013 N/A 0.00 0.00
8:54 am 08:54 undefined 41 5 37 2.8 86 86 undefined N/A 29.94 1014 N/A 0.00 0.00
9:54 am 09:54 undefined 42 5.6 38 3.3 85 85 undefined N/A 29.93 1014 N/A 0.00 0.00
10:54 am 10:54 undefined 43 6.1 39 3.9 86 86 undefined N/A 29.93 1013 N/A 0.00 0.00
11:54 am 11:54 undefined 43 6.1 39 3.9 86 86 undefined N/A 29.91 1013 N/A 0.00 0.00
12:54 pm 12:54 undefined 44 6.7 40 4.4 85 85 undefined N/A 29.88 1012 N/A 0.00 0.00
2:54 pm 14:54 undefined 45 7.2 42 5.6 90 90 undefined N/A 29.88 1012 N/A 0.02 0.51
3:54 pm 15:54 undefined 44 6.7 42 5.6 93 93 undefined N/A 29.90 1012 N/A 0.03 0.76
4:54 pm 16:54 undefined 44 6.7 42 5.6 93 93 undefined N/A 29.88 1012 N/A 0.03 0.76
5:54 pm 17:54 undefined 41 5 40 4.4 96 96 undefined N/A 29.89 1012 N/A 0.03 0.76
6:54 pm 18:54 undefined 41 5 40 4.4 96 96 undefined N/A 29.89 1012 N/A 0.02 0.51
7:54 pm 19:54 undefined 42 5.6 40 4.4 92 92 undefined N/A 29.91 1013 N/A 0.06 1.52
8:54 pm 20:54 undefined 43 6.1 41 5 93 93 undefined N/A 29.95 1014 N/A 0.10 2.54
9:54 pm 21:54 undefined 42 5.6 41 5 96 96 undefined N/A 29.93 1014 N/A 0.07 1.78
10:54 pm 22:54 undefined 42 5.6 40 4.4 92 92 undefined N/A 29.96 1014 N/A 0.06 1.52
11:54 pm 23:54 undefined 42 5.6 41 5 96 96 undefined N/A 29.95 1014 N/A 0.04 1.02

Powered by AerisWeather